Flag for Canada Weather past 2 weeks in Timmins, Ontario, Canada

Now
25 °F

Passing clouds.


Feels Like: 19 °F
Forecast: 1 / 37 °F
Wind: 5 mph from North

Location: Timmins

Current Time: Mar 31, 2015 at 8:21:27 PM

Latest Report: Mar 31, 2015 at 8:00 PM


Visibility: 15 mi

Pressure: 29.99 "Hg

Humidity: 42%

Dew point: 5 °F

Location of TimminsLocation

Historic Weather in Timmins — Graph

°F

Timmins temperature yesterday

Maximum temperature yesterday: 30 °F (at 3:00 AM)
Minimum temperature yesterday: 5 °F (at 11:00 PM)
Average temperature yesterday: 23 °F

Past Weeks' High & Low Weather Summary

 TemperatureHumidityPressure
High41 °F (Mar 19, 4:00 PM)100% (Mar 25, 6:00 PM)30.48 "Hg (Mar 25, 6:00 PM)
Low-17 °F (Mar 22, 5:00 AM)20% (Mar 24, 3:00 PM)29.36 "Hg (Mar 30, 2:00 AM)
Average15 °F63%30.05 "Hg
* Reported Mar 16 7:00 PM — Mar 31 7:00 PM, Timmins, Weather by CustomWeather, © 2015

Note: Actual official high and low records may vary slightly from our data, if they occured in-between our weather recording intervals... More about our weather records

Advertising

Timmins weather history for previous 24 hours

 ConditionsComfort  
Time TempWeatherWind HumidityBarometerVisibility
7:00 PM
Tue, Mar 31
28 °FPassing clouds.9 mph40%29.97 "Hg15 mi
6:00 PM28 °FPassing clouds.14 mph40%29.95 "Hg15 mi
5:00 PM28 °FScattered clouds.9 mph40%29.95 "Hg15 mi
4:00 PM28 °FScattered clouds.8 mph37%29.94 "Hg15 mi
3:00 PM27 °FPassing clouds.5 mph39%29.94 "Hg15 mi
2:00 PM23 °FScattered clouds.No wind42%29.95 "Hg15 mi
1:00 PM21 °FScattered clouds.3 mph54%29.96 "Hg15 mi
12:00 PM18 °FPartly sunny.3 mph58%29.97 "Hg15 mi
11:00 AM14 °FPartly sunny.3 mph67%29.98 "Hg15 mi
10:00 AM7 °FPassing clouds.3 mph85%29.99 "Hg15 mi
9:00 AM-4 °FPassing clouds.No wind84%29.99 "Hg15 mi
8:00 AM-11 °FIce fog.No wind84%29.98 "Hg1 mi
7:51 AM-13 °FIce fog.No wind91%29.97 "Hg1 mi
7:00 AM-11 °FLight fog.No wind76%29.96 "Hg15 mi
6:00 AM-9 °FClear.No wind84%29.96 "Hg15 mi
5:00 AM-9 °FClear.3 mph84%29.96 "Hg15 mi
4:00 AM-6 °FClear.2 mph84%29.95 "Hg15 mi
3:00 AM-4 °FClear.2 mph84%29.96 "Hg15 mi
1:00 AM-4 °FClear.No wind92%29.96 "Hg15 mi
12:00 AM1 °FClear.No wind85%29.97 "Hg15 mi
11:00 PM
Mon, Mar 30
5 °FClear.3 mph92%29.97 "Hg15 mi
10:00 PM9 °FPassing clouds.5 mph92%29.96 "Hg15 mi
9:00 PM14 °FLight snow. Passing clouds.3 mph79%29.94 "Hg15 mi
8:00 PM18 °FLight snow. Partly sunny.7 mph73%29.91 "Hg15 mi
Weather by CustomWeather, © 2015

See weather overviewHow to use our weather pages